This is the latest recevied weather packets stored in our database for station/object IZ3LCH-13. If no packets are shown the sender has not sent any weather packets the latest 10 day(s).
| Time | Temp. | Humidity | Pressure | Rain* | Wind** | Luminosity | Snow |
|---|---|---|---|---|---|---|---|
| 1777703103 | 13.89° C | 59% | 1025.7 hPa | 0 mm | - | - | - |
| 1777702803 | 13.33° C | 60% | 1025.8 hPa | 0 mm | - | - | - |
| 1777702503 | 13.33° C | 60% | 1025.7 hPa | 0 mm | - | - | - |
| 1777702203 | 12.78° C | 61% | 1025.9 hPa | 0 mm | - | - | - |
| 1777701903 | 12.78° C | 62% | 1025.8 hPa | 0 mm | - | - | - |
| 1777701603 | 12.22° C | 63% | 1025.5 hPa | 0 mm | - | - | - |
| 1777701303 | 11.67° C | 64% | 1025.7 hPa | 0 mm | - | - | - |
| 1777701003 | 11.11° C | 65% | 1025.9 hPa | 0 mm | - | - | - |
| 1777700703 | 11.11° C | 66% | 1025.7 hPa | 0 mm | - | - | - |
| 1777700404 | 10.56° C | 66% | 1025.7 hPa | 0 mm | - | - | - |
| 1777700103 | 10° C | 67% | 1025.7 hPa | 0 mm | - | - | - |
| 1777699803 | 9.44° C | 68% | 1026 hPa | 0 mm | - | - | - |
| 1777699503 | 9.44° C | 69% | 1026.1 hPa | 0 mm | - | - | - |
| 1777699203 | 8.89° C | 70% | 1025.9 hPa | 0 mm | - | - | - |
| 1777698903 | 8.89° C | 70% | 1025.7 hPa | 0 mm | - | - | - |
| 1777698603 | 8.33° C | 70% | 1025.7 hPa | 0 mm | - | - | - |
| 1777698303 | 8.33° C | 70% | 1025.5 hPa | 0 mm | - | - | - |
| 1777698003 | 7.78° C | 71% | 1025.7 hPa | 0 mm | - | - | - |
| 1777697703 | 7.78° C | 70% | 1025.8 hPa | 0 mm | - | - | - |
| 1777697403 | 7.78° C | 70% | 1025.8 hPa | 0 mm | - | - | - |
| 1777697103 | 7.78° C | 70% | 1025.5 hPa | 0 mm | - | - | - |
| 1777696803 | 7.22° C | 70% | 1025.5 hPa | 0 mm | - | - | - |
| 1777696503 | 7.22° C | 70% | 1025.7 hPa | 0 mm | - | - | - |
| 1777696203 | 7.22° C | 70% | 1025.7 hPa | 0 mm | - | - | - |
| 1777695903 | 7.22° C | 70% | 1025.7 hPa | 0 mm | - | - | - |
* Rain latest hour (hover to see other rain measurements)
** Current wind speed in m/s (hover to see current wind gust speed)